Regional Weather Roundup
Issued by NWS

Home | Current Version | Previous Version | Graphics & Text | Print | Product List | Glossary On
Versions: 1 2 3 4 5 6 7 8 9 10 11 12 13 14 15 16 17 18 19 20 21 22 23 24 25 26 27 28 29 30 31 32 33 34 35 36 37 38 39 40 41 42 43 44 45 46 47 48 49 50
000
ASUS43 KLSX 021707
RWRMO

WEATHER SUMMARY FOR MISSOURI
NATIONAL WEATHER SERVICE SPRINGFIELD MO
1200 PM CDT TUE SEP 02 2014

NOTE: "FAIR" INDICATES FEW OR NO CLOUDS BELOW 12,000 FEET WITH NO
       SIGNIFICANT WEATHER AND/OR OBSTRUCTIONS TO VISIBILITY.
       CURRENT SKY AND/OR WEATHER CONDITIONS ARE NOT AVAILABLE FOR
       CHILLICOTHE AND FARMINGTON.

MOZ001>031-035>038-043-044-053-054-021800-
...NORTHERN AND WESTERN MISSOURI...

CITY           SKY/WX    TMP DP  RH WIND       PRES   REMARKS
KANSAS CTY INT PTSUNNY   76  67  73 CALM      30.01R
KANSAS C DTWN  PTSUNNY   78  69  73 VRB3      29.99S
LEE`S SUMMIT   CLOUDY    75  69  81 S3        30.02R
ST JOSEPH      SUNNY     77  64  64 VRB3      30.01R
CHILLICOTHE      N/A     77  66  68 VRB5      30.00R
KIRKSVILLE     MOSUNNY   78  65  63 VRB5      29.99S

$$
MOZ066>068-077>081-088>096-101>105-021800-
...SOUTHWEST MISSOURI...

CITY           SKY/WX    TMP DP  RH WIND       PRES   REMARKS
SPRINGFIELD    CLOUDY    69  64  84 SW5       30.04R
JOPLIN         CLOUDY    69  67  93 SW7       30.07R

$$
MOZ032>034-039>042-045>050-055>058-069>072-021800-
...CENTRAL MISSOURI...

CITY           SKY/WX    TMP DP  RH WIND       PRES   REMARKS
COLUMBIA       CLOUDY    75  70  84 W7        30.01R
JEFFERSON CITY CLOUDY    75  70  84 W7        30.00S
ROLLA          CLOUDY    73  66  78 W13       30.01R
SEDALIA        CLOUDY    77  71  82 SW7       30.02R
WHITEMAN AFB   PTSUNNY   74  70  87 SW3       30.01R
OSAGE BEACH    CLOUDY    72  66  83 W7        30.04R

$$
MOZ051-052-059>065-021800-
...EAST CENTRAL MISSOURI...

CITY           SKY/WX    TMP DP  RH WIND       PRES   REMARKS
ST LOUIS INTL  CLOUDY    77  70  79 NW8       29.98S
SPIRIT OF STL  CLOUDY    75  72  88 W8        29.98R
ST CHARLES     CLOUDY    76  70  82 W7        29.97R

$$
MOZ072>076-082>087-097>100-106>115-021800-
...SOUTH CENTRAL AND SOUTHEAST MISSOURI...

CITY           SKY/WX    TMP DP  RH WIND       PRES   REMARKS
CAPE GIRARDEAU CLOUDY    81  70  69 W6        29.96F
FARMINGTON     CLOUDY    75  64  69 W8        30.02R
POPLAR BLUFF   CLOUDY    76  67  73 SW8       29.96S
WEST PLAINS    CLOUDY    70  66  87 W7        30.05R

$$



USA.gov is the U.S. government's official web portal to all federal, state and local government web resources and services.